Location: Finkenbach
(49.5340°N, 8.9188°E)
Time: 20:27:31
(UTC+00:00)

SL-16 R/B - Pass Details

Date: 17 June 2025
Orbit: 841 x 847 km, 71.0° (Epoch: 16 July)

Event Time Altitude Azimuth Distance (km) Brightness Sun altitude
Rises 22:31:24 0° 315° (NW) 3,408 6.4 -16.1°
Reaches altitude 10° 22:35:41 10° 284° (WNW) 2,467 5.0 -16.2°
Maximum altitude 22:37:30 12° 265° (W) 2,352 4.6 -16.3°
Drops below altitude 10° 22:39:19 10° 246° (WSW) 2,463 4.5 -16.3°
Enters shadow 22:41:38 - 227° (SW) 2,883 4.7 -16.4°
